Salina, KS

12:27 PM CST on November 24, 2017 (GMT -0600)
Salina Municipal

Weather History for KSLN - December, 2011

Change the Weather History Date:

Tuesday, December 20, 2011

  Actual Average Record
Temperature  
Mean Temperature 27 °F 31 °F  
Max Temperature 32 °F 41 °F 69 °F (2004)
Min Temperature 22 °F 21 °F -10 °F (1983)
Degree Days  
Heating Degree Days 38 34  
Month to date heating degree days 618 636  
Since 1 July heating degree days 1542 1588  
Cooling Degree Days 0 0  
Month to date cooling degree days 0 0  
Year to date cooling degree days 2003 1647  
Moisture  
Dew Point 27 °F    
Average Humidity 89    
Maximum Humidity 100    
Minimum Humidity 78    
Precipitation  
Precipitation 0.15 in 0.03 in 1.00 in (1911)
Month to date precipitation 2.09 0.66  
Year to date precipitation 21.59 31.22  
Sea Level Pressure  
Sea Level Pressure 29.97 in    
Wind  
Wind Speed 12 mph (North)    
Max Wind Speed 26 mph    
Max Gust Speed 36 mph    
Visibility 6 miles    
Events Snow    
T = Trace of Precipitation, MM = Missing Value Source: NWS Daily Summary

Daily Weather History Graph

Daily Weather History Graph

Search for Another Location

Airport or City:

Trip Planner

Search our weather history database for the weather conditions in past years. The results will help you decide how hot, cold, wet, or windy it might be!

Date:

Astronomy

Dec. 20, 2011 Rise Set
Actual Time 7:44 AM CST 5:11 PM CST
Civil Twilight 7:14 AM CST 5:41 PM CST
Nautical Twilight 6:41 AM CST 6:15 PM CST
Astronomical Twilight 6:08 AM CST 6:47 PM CST
Moon 3:08 AM CST (12/20) 1:47 PM CST (12/20)
Length of Visible Light 10h 26m
Length of Day
9h 27m
Waning Crescent, 21% of the Moon is Illuminated
Dec 20
Waning Crescent
Dec 24
New
Jan 1
First Quarter
Jan 9
Full
Jan 16
Last Quarter

Hourly Weather History & Observations

Time (CST) Temp. Windchill Dew Point Humidity Pressure Visibility Wind Dir Wind Speed Gust Speed Precip Events Conditions
12:53 AM 30.9 °F 19.4 °F 28.9 °F 92% 30.05 in 10.0 mi NE 17.3 mph 27.6 mph 0.00 in Snow Snow
1:20 AM 30.2 °F 18.5 °F 28.4 °F 93% 30.01 in 10.0 mi NNE 17.3 mph 24.2 mph 0.00 in Snow Snow
1:53 AM 30.9 °F 19.8 °F 28.0 °F 89% 30.04 in 9.0 mi NE 16.1 mph 23.0 mph 0.00 in Snow Snow
2:29 AM 30.2 °F 19.3 °F 26.6 °F 86% 30.01 in 8.0 mi NE 15.0 mph - 0.00 in Snow Snow
2:53 AM 30.9 °F 22.2 °F 27.0 °F 85% 30.04 in 4.0 mi NE 10.4 mph - 0.00 in Snow Snow
3:37 AM 30.2 °F 18.9 °F 28.4 °F 93% 30.00 in 3.0 mi NNE 16.1 mph 23.0 mph 0.00 in Snow Snow
3:53 AM 30.0 °F 19.1 °F 28.0 °F 92% 30.03 in 5.0 mi NNE 15.0 mph 21.9 mph 0.00 in Snow Snow
4:24 AM 30.2 °F 20.2 °F 28.4 °F 93% 30.00 in 6.0 mi NNE 12.7 mph - 0.00 in Snow Snow
4:42 AM 30.2 °F 18.9 °F 28.4 °F 93% 29.99 in 2.5 mi NNE 16.1 mph - 0.00 in Snow Snow
4:53 AM 30.0 °F 18.7 °F 28.0 °F 92% 30.02 in 2.5 mi North 16.1 mph - N/A Snow Snow
5:53 AM 28.4 °F 17.5 °F 26.6 °F 93% 29.99 in 1.5 mi North 13.8 mph - N/A Snow Snow
6:53 AM 28.9 °F 16.1 °F 27.0 °F 92% 30.04 in 1.8 mi North 19.6 mph - N/A Snow Snow
7:53 AM 28.0 °F 17.0 °F 27.0 °F 96% 30.04 in 0.8 mi North 13.8 mph - 0.00 in Snow Light Snow
8:53 AM 28.0 °F 17.0 °F 27.0 °F 96% 30.04 in 0.8 mi North 13.8 mph - 0.00 in Snow Light Snow
8:59 AM 28.4 °F 18.0 °F 26.6 °F 93% 30.00 in 1.2 mi North 12.7 mph - 0.00 in Snow Light Snow
9:22 AM 28.4 °F 17.0 °F 26.6 °F 93% 30.00 in 2.0 mi North 15.0 mph - 0.00 in Snow Light Snow
9:53 AM 28.0 °F 15.7 °F 26.1 °F 92% 30.04 in 2.0 mi North 17.3 mph - 0.00 in Snow Light Snow
10:20 AM 28.4 °F 17.5 °F 26.6 °F 93% 30.01 in 1.8 mi North 13.8 mph - N/A   Mist
10:53 AM 28.9 °F 18.2 °F 27.0 °F 92% 30.04 in 1.5 mi North 13.8 mph - N/A   Mist
10:55 AM 28.4 °F 17.5 °F 26.6 °F 93% 30.00 in 1.8 mi North 13.8 mph - N/A   Overcast
11:02 AM 28.4 °F 16.6 °F 26.6 °F 93% 30.00 in 1.8 mi North 16.1 mph - N/A   Mist
11:28 AM 28.4 °F 18.0 °F 26.6 °F 93% 29.99 in 2.0 mi North 12.7 mph - N/A   Mist
11:53 AM 28.9 °F 18.6 °F 28.0 °F 96% 30.01 in 2.0 mi North 12.7 mph - N/A   Mist
12:05 PM 28.4 °F 17.0 °F 28.4 °F 100% 29.97 in 1.5 mi North 15.0 mph - N/A   Mist
12:53 PM 28.9 °F 18.2 °F 28.0 °F 96% 29.97 in 1.5 mi NNW 13.8 mph - 0.00 in Snow Light Snow
1:49 PM 30.2 °F 21.3 °F 26.6 °F 86% 29.92 in 5.0 mi North 10.4 mph - 0.00 in Snow Light Snow
1:53 PM 30.0 °F 20.5 °F 26.1 °F 85% 29.95 in 5.0 mi North 11.5 mph - 0.00 in Snow Light Snow
2:16 PM 30.2 °F 22.6 °F 26.6 °F 86% 29.90 in 10.0 mi North 8.1 mph - 0.00 in   Overcast
2:53 PM 30.9 °F 26.2 °F 26.1 °F 82% 29.92 in 9.0 mi North 4.6 mph - 0.00 in   Overcast
3:33 PM 32.0 °F 24.2 °F 26.6 °F 80% 29.89 in 10.0 mi NNW 9.2 mph - 0.02 in   Overcast
3:49 PM 32.0 °F 24.2 °F 28.4 °F 87% 29.88 in 10.0 mi NW 9.2 mph - 0.03 in   Overcast
3:53 PM 32.0 °F 24.8 °F 27.0 °F 82% 29.92 in 10.0 mi NW 8.1 mph - 0.03 in   Overcast
4:53 PM 32.0 °F 24.2 °F 27.0 °F 82% 29.91 in 10.0 mi NW 9.2 mph - 0.02 in   Overcast
5:53 PM 30.9 °F 23.5 °F 28.0 °F 89% 29.91 in 10.0 mi WNW 8.1 mph - 0.01 in   Overcast
6:53 PM 30.9 °F 24.3 °F 27.0 °F 85% 29.91 in 10.0 mi West 6.9 mph - N/A   Overcast
7:53 PM 30.9 °F 22.8 °F 26.1 °F 82% 29.92 in 10.0 mi WNW 9.2 mph - N/A   Overcast
8:53 PM 28.9 °F 19.8 °F 25.0 °F 85% 29.92 in 10.0 mi West 10.4 mph - 0.01 in   Overcast
9:45 PM 26.6 °F 20.0 °F 21.2 °F 80% 29.88 in 10.0 mi West 5.8 mph - N/A   Scattered Clouds
9:53 PM 26.1 °F 20.5 °F 21.9 °F 84% 29.92 in 10.0 mi West 4.6 mph - N/A   Partly Cloudy
10:53 PM 25.0 °F 14.8 °F 21.0 °F 85% 29.90 in 10.0 mi WSW 10.4 mph - N/A   Clear
11:53 PM 24.1 °F 19.7 °F 19.9 °F 84% 29.89 in 10.0 mi Variable 3.5 mph - N/A   Clear